Weather in George

South Africa     33°57′47″S   22°26′56″E
В апреле 2022 года жителям России запретили посещать сайт meteo.paraplan.net по решению Генеральной прокуратуры. Аудитория сайта уменьшилась в 10 раз. Владельцы сайта не видят смысла в поддержке погодного сервера в таких условиях. Сайт будет закрыт в октябре.
temp.,
°C
wind,
m/s
gust,
m/s
humid.,
%
clouds,
%
prec.,
mm/h
press.,
hPa
HPBL,
m
25 september, sun
sun2523:00+15n1166100 0.0 101369
02:00+15nne1163100 0.0 101055
05:00+15wsw1160100 0.0 1009137
08:00+16wsw2261100 0.0 1010247
11:00+17sw346674 0.0 1010398
14:00+17ssw5678100 0.0 1009512
17:00+16wsw358584 0.0 1011449
20:00+15wnw3391100 0.1 1013223
26 september, mon
mon2623:00+15wnw2284100 0.0 1015131
02:00+15nw0182100 0.1 1013113
05:00+15ene3486100 0.1 1013194
08:00+16ese1281100 0.1 1014193
11:00+17se5680100 0.1 1014542
14:00+18se778031 0.2 1014548
17:00+17ese8118964 0.3 1015585
20:00+16e599179 0.6 1017421
27 september, tue
tue2723:00+15ne229283 0.2 101876
02:00+15nne11868 0.3 101856
05:00+15n21853 0.1 101858
08:00+16wnw11810 0.1 102088
11:00+17s338248 0.0 1020541
14:00+18se348642 0.0 1018408
17:00+19se46846 0.0 1017306
20:00+17n1195100 0.0 101817
28 september, wed
wed2823:00+17w458845 0.0 101873
02:00+16w35903 0.0 1017126
05:00+16w358916 0.0 1016173
08:00+17wsw4781100 0.0 1018347
11:00+19ssw5775100 0.0 1019393
14:00+17sw5682100 0.0 1018381
17:00+16sw338138 0.0 1019392
20:00+15nw118369 0.0 1020109
29 september, thu
thu2923:00+15wnw127657 0.0 1020117
02:00+14wnw118095 0.0 1018109
05:00+14n118498 0.0 1018111
08:00+15sse0178100 0.0 1019238
11:00+16s3277100 0.0 1018401
14:00+16sse3377100 0.0 1017416
17:00+15s2278100 0.0 1018500
20:00+15ssw128064 0.1 1020386